View from above orbital plane
|
View from above satellite
|
Ground track
|
The orbit data is extracted from the following two-line orbital elements,
1 40967U 15058D 20072.35663684 .00000009 00000-0 20299-4 0 9778
2 40967 64.7737 65.6109 0171582 110.8178 251.1400 14.76080887147249
Epoch (UTC): | 12 March 2020 08:33:33 |
Eccentricity: | 0.0171582 |
inclination: | 64.7737° |
perigee height: | 521 km |
apogee height: | 762 km |
right ascension of ascending node: | 65.6109° |
argument of perigee: | 110.8178° |
revolutions per day: | 14.76080887 |
mean anomaly at epoch: | 251.1400° |
orbit number at epoch: | 14724 |
The dashed part of the orbit path shows where the satellite is in the earth's shadow,
|
|